Date,TemperatureHighF,TemperatureAvgF,TemperatureLowF,DewpointHighF,DewpointAvgF,DewpointLowF,HumidityHigh,HumidityAvg,HumidityLow,PressureMaxIn,PressureMinIn,WindSpeedMaxMPH,WindSpeedAvgMPH,GustSpeedMaxMPH,PrecipitationSumIn
2013-2-1,23,14,3,18,-4,-12,82,46,30,30.50,30.22,21,9,21,0.00
2013-2-2,34,25,20,22,14,9,82,62,53,30.24,29.19,22,7,22,0.00
2013-2-3,37,27,20,21,13,-2,84,59,21,30.17,30.03,23,7,23,0.00
2013-2-4,46,32,26,26,20,12,69,60,39,30.03,29.83,18,7,18,0.00
2013-2-5,51,34,24,30,24,17,80,67,41,30.15,29.89,19,6,19,0.00
2013-2-6,57,37,22,31,26,19,92,67,29,30.27,30.09,16,5,16,0.00
2013-2-7,40,38,36,40,34,27,98,84,66,30.09,29.89,17,5,17,0.43
2013-2-8,36,31,28,32,24,19,88,75,68,30.43,30.07,21,6,21,0.00
2013-2-9,46,34,28,32,25,20,80,70,49,30.42,30.06,18,6,18,0.02
2013-2-10,51,44,37,48,40,28,96,86,53,30.08,29.57,33,14,33,0.39
2013-2-11,49,38,28,30,22,18,76,54,38,30.18,29.71,33,12,33,0.00
2013-2-12,43,31,24,26,22,18,82,69,44,30.20,29.97,11,2,11,0.00
2013-2-13,54,38,26,31,26,21,88,65,29,29.99,29.80,17,4,17,0.00
2013-2-14,50,39,32,32,28,23,79,65,41,30.09,29.79,20,6,20,0.00
2013-2-15,41,31,22,26,10,-5,77,46,17,30.29,30.08,20,7,20,0.00
2013-2-16,37,23,15,10,3,-6,65,43,17,30.30,30.19,15,5,15,0.00
2013-2-17,50,30,13,19,11,3,65,49,21,30.25,29.94,21,5,21,0.00
2013-2-18,57,41,29,42,28,18,85,61,48,29.94,29.67,33,14,33,0.17
2013-2-19,29,23,18,18,6,-2,63,48,40,30.33,29.86,30,11,30,0.07
2013-2-20,28,18,7,11,0,-7,68,46,24,30.47,30.30,15,5,17,0.00
2013-2-21,32,23,15,30,16,7,93,74,60,30.40,29.88,29,8,29,0.06
2013-2-22,36,31,26,32,25,16,95,80,58,30.07,29.82,22,6,22,0.09
2013-2-23,34,24,17,17,13,9,74,63,47,30.07,30.01,12,5,12,0.00
2013-2-24,48,30,13,23,16,7,81,59,27,30.17,30.04,8,2,8,0.00
2013-2-25,48,36,25,32,26,19,82,68,50,30.15,29.83,17,5,17,0.00
2013-2-26,36,33,32,32,30,26,94,88,67,29.85,29.46,25,9,25,0.86
2013-2-27,37,33,31,30,28,25,92,84,69,29.86,29.62,17,6,17,0.14
2013-2-28,36,33,32,30,29,27,93,83,71,30.12,29.86,13,5,13,0.00